Location: Newark
(33.6439°N, 114.9881°W)
Time: 07:43:27
(UTC+00:00)

Tiros 1 - Pass Details

Date: 27 July 2019
Orbit: 631 x 664 km, 48.4° (Epoch: 24 August)

Event Time Altitude Azimuth Distance (km) Brightness Sun altitude
Rises 00:38:38 0° 304° (WNW) 2,993 11.6 24.4°
Reaches altitude 10° 00:41:02 10° 299° (WNW) 2,076 11.2 23.9°
Maximum altitude 00:45:41 52° 224° (SW) 817 8.4 22.9°
Drops below altitude 10° 00:50:18 10° 148° (SSE) 2,052 9.4 22.0°
Sets 00:52:40 0° 143° (SE) 2,955 10.1 21.5°
